Chicago Midway, IL

5:31 AM CST on December 15, 2019 (GMT -0600)
Chicago-Midway

Weather History for KMDW - October, 2019

Change the Weather History Date:

Tuesday, October 29, 2019

  Actual Average Record
Temperature  
Mean Temperature 43 °F 50 °F  
Max Temperature 48 °F 58 °F 79 °F (1999)
Min Temperature 37 °F 42 °F 22 °F (1980)
Degree Days  
Heating Degree Days 22 16  
Month to date heating degree days 330 316  
Since 1 July heating degree days 331 398  
Cooling Degree Days 0 0  
Month to date cooling degree days 21 13  
Year to date cooling degree days 1131 1042  
Growing Degree Days 18 (Base 50)    
Moisture  
Dew Point 35 °F    
Average Humidity 82    
Maximum Humidity 93    
Minimum Humidity 53    
Precipitation  
Precipitation 0.11 in 0.11 in 1.02 in (2009)
Month to date precipitation 3.98 3.01  
Year to date precipitation 41.80 32.87  
Sea Level Pressure  
Sea Level Pressure 30.18 in    
Wind  
Wind Speed 8 mph (NNW)    
Max Wind Speed 22 mph    
Max Gust Speed 29 mph    
Visibility 6 miles    
Events Rain    
T = Trace of Precipitation, MM = Missing Value Source: NWS Daily Summary

Daily Weather History Graph

Daily Weather History Graph

Search for Another Location

Airport or City:

Astronomy

Oct. 29, 2019 Rise Set
Actual Time 7:19 AM CDT 5:49 PM CDT
Civil Twilight 6:50 AM CDT 6:18 PM CDT
Nautical Twilight 6:17 AM CDT 6:50 PM CDT
Astronomical Twilight 5:45 AM CDT 7:23 PM CDT
Moon 8:53 AM CDT (10/29) 7:12 PM CDT (10/29)
Length of Visible Light 11h 27m
Length of Day
10h 30m
Waxing Crescent, 3% of the Moon is Illuminated
Oct 29
Waxing Crescent
Nov 4
First Quarter
Nov 12
Full
Nov 19
Last Quarter
Nov 26
New

Hourly Weather History & Observations

Time (CDT) Temp. Windchill Dew Point Humidity Pressure Visibility Wind Dir Wind Speed Gust Speed Precip Events Conditions
12:53 AM 46.9 °F - 44.1 °F 90% 30.00 in 7.0 mi Calm Calm - N/A   Overcast
1:10 AM 48.0 °F - 43.0 °F 83% 29.98 in 7.0 mi NNE 3.5 mph - N/A   Overcast
1:53 AM 48.0 °F - 43.0 °F 83% 30.01 in 7.0 mi NNW 8.1 mph - N/A   Overcast
2:07 AM 46.9 °F - 43.0 °F 86% 30.01 in 7.0 mi NNW 10.4 mph - N/A   Overcast
2:26 AM 46.0 °F 40.2 °F 43.0 °F 89% 30.03 in 2.5 mi NNW 12.7 mph - 0.03 in Rain Light Rain
2:53 AM 45.0 °F 38.2 °F 42.1 °F 90% 30.05 in 5.0 mi NNW 15.0 mph - 0.09 in Rain Light Rain
3:30 AM 42.1 °F 34.9 °F 39.0 °F 89% 30.04 in 9.0 mi NNW 13.8 mph 29.9 mph 0.01 in Rain Light Rain
3:53 AM 41.0 °F 32.8 °F 37.9 °F 89% 30.07 in 3.0 mi NNW 16.1 mph 23.0 mph 0.01 in   Light Drizzle
4:09 AM 39.0 °F 29.3 °F 36.0 °F 89% 30.06 in 3.0 mi NNW 19.6 mph 27.6 mph 0.00 in Rain Light Rain
4:53 AM 37.9 °F 30.0 °F 36.0 °F 93% 30.09 in 2.5 mi North 12.7 mph - 0.01 in   Light Drizzle
5:29 AM 37.9 °F 30.5 °F 36.0 °F 93% 30.07 in 3.0 mi North 11.5 mph - 0.00 in   Light Drizzle
5:53 AM 39.0 °F 34.8 °F 37.0 °F 93% 30.09 in 3.0 mi NNE 5.8 mph - 0.00 in   Light Drizzle
6:53 AM 39.9 °F 33.4 °F 37.9 °F 93% 30.12 in 4.0 mi NNW 10.4 mph - 0.00 in   Light Drizzle
7:53 AM 37.9 °F 30.5 °F 36.0 °F 93% 30.16 in 4.0 mi NNW 11.5 mph - 0.00 in   Light Drizzle
8:28 AM 37.9 °F 30.9 °F 35.1 °F 89% 30.14 in 2.0 mi NNW 10.4 mph - 0.00 in   Light Drizzle
8:53 AM 37.9 °F 30.0 °F 36.0 °F 93% 30.18 in 2.5 mi NNW 12.7 mph - 0.00 in   Overcast
9:13 AM 37.9 °F 30.0 °F 36.0 °F 93% 30.17 in 4.0 mi North 12.7 mph - N/A   Overcast
9:41 AM 37.9 °F 30.5 °F 34.0 °F 86% 30.18 in 6.0 mi NNW 11.5 mph - N/A   Overcast
9:53 AM 37.9 °F 30.5 °F 35.1 °F 89% 30.21 in 5.0 mi NNW 11.5 mph - N/A   Overcast
10:01 AM 37.0 °F 29.8 °F 34.0 °F 89% 30.20 in 5.0 mi NNW 10.4 mph - N/A   Overcast
10:06 AM 37.0 °F 29.3 °F 34.0 °F 89% 30.20 in 4.0 mi NW 11.5 mph - N/A   Overcast
10:23 AM 37.9 °F 30.9 °F 35.1 °F 89% 30.19 in 3.0 mi NNW 10.4 mph - N/A   Overcast
10:53 AM 100.4 °F - 95.0 °F 85% 30.22 in 3.0 mi NNW 10.4 mph - N/A   Overcast
11:19 AM 37.9 °F 31.5 °F 35.1 °F 89% 30.22 in 4.0 mi WNW 9.2 mph - N/A   Overcast
11:53 AM 37.9 °F 32.7 °F 35.1 °F 89% 30.24 in 8.0 mi NNW 6.9 mph - N/A   Overcast
12:31 PM 39.9 °F 36.7 °F 35.1 °F 83% 30.21 in 7.0 mi Variable 4.6 mph - N/A   Overcast
12:53 PM 39.0 °F - 36.0 °F 89% 30.24 in 9.0 mi Calm Calm - N/A   Overcast
1:53 PM 41.0 °F 35.8 °F 35.1 °F 79% 30.23 in 10.0 mi NW 8.1 mph - N/A   Overcast
2:41 PM 42.1 °F 36.6 °F 34.0 °F 73% 30.22 in 10.0 mi WNW 9.2 mph - N/A   Overcast
2:53 PM 42.1 °F 37.1 °F 34.0 °F 73% 30.24 in 10.0 mi WNW 8.1 mph - N/A   Overcast
3:53 PM 42.1 °F 37.1 °F 33.1 °F 70% 30.26 in 10.0 mi WNW 8.1 mph - N/A   Overcast
4:53 PM 41.0 °F 35.2 °F 32.0 °F 70% 30.27 in 10.0 mi NW 9.2 mph - N/A   Overcast
5:53 PM 39.9 °F 35.1 °F 30.0 °F 68% 30.30 in 10.0 mi NW 6.9 mph - N/A   Mostly Cloudy
6:53 PM 39.0 °F 34.0 °F 30.0 °F 70% 30.31 in 10.0 mi NW 6.9 mph - N/A   Overcast
7:53 PM 39.0 °F 35.7 °F 30.0 °F 70% 30.32 in 10.0 mi NW 4.6 mph - N/A   Overcast
8:53 PM 39.0 °F 34.8 °F 30.0 °F 70% 30.33 in 10.0 mi NW 5.8 mph - N/A   Overcast
9:53 PM 39.9 °F 34.5 °F 28.9 °F 65% 30.31 in 10.0 mi North 8.1 mph - N/A   Overcast
10:53 PM 39.0 °F 32.3 °F 28.0 °F 65% 30.30 in 10.0 mi North 10.4 mph - N/A   Overcast
11:53 PM 39.0 °F 32.8 °F 28.9 °F 67% 30.31 in 10.0 mi NNE 9.2 mph - N/A   Overcast